| time (UTC) | temp F | wind direction | speed knots | gust knots | rain 1hr in | rain 24hr in | rain mn in | humidity % | barometer mb |
| 20260510011559 | 78 | 130 | 2.6 | 7.0 | 0.00 | 0.00 | 0.00 | 51 | 1007.5 |
| 20260510010021 | 78 | 131 | 4.3 | 7.0 | 0.00 | 0.00 | 0.00 | 49 | 1007.1 |
| 20260510004623 | 79 | 132 | 4.3 | 7.0 | 0.00 | 0.01 | 0.00 | 48 | 1007.4 |
| 20260510003054 | 80 | 134 | 3.5 | 6.1 | 0.00 | 0.01 | 0.00 | 45 | 1007.4 |
| 20260510001519 | 82 | 136 | 3.5 | 7.0 | 0.00 | 0.01 | 0.00 | 43 | 1007.5 |
| 20260509234522 | 83 | 128 | 5.2 | 8.7 | 0.00 | 0.01 | 0.00 | 39 | 1007.6 |
| 20260509233116 | 83 | 123 | 3.5 | 11.3 | 0.00 | 0.01 | 0.00 | 40 | 1007.8 |
| 20260509231530 | 83 | 109 | 2.6 | 8.7 | 0.00 | 0.01 | 0.00 | 40 | 1007.9 |
| 20260509230123 | 84 | 157 | 3.5 | 7.8 | 0.00 | 0.01 | 0.00 | 38 | 1008.1 |
| 20260509224550 | 84 | 121 | 3.5 | 8.7 | 0.00 | 0.01 | 0.00 | 38 | 1008.3 |
| 20260509223003 | 84 | 118 | 5.2 | 12.2 | 0.00 | 0.01 | 0.00 | 37 | 1008.2 |
| 20260509221609 | 84 | 107 | 5.2 | 8.7 | 0.00 | 0.01 | 0.00 | 37 | 1008.3 |
| 20260509220028 | 84 | 107 | 5.2 | 8.7 | 0.00 | 0.01 | 0.00 | 37 | 1008.4 |
| 20260509214617 | 85 | 122 | 5.2 | 7.8 | 0.00 | 0.01 | 0.00 | 35 | 1008.6 |
| 20260509213045 | 84 | 104 | 1.7 | 7.8 | 0.00 | 0.01 | 0.00 | 36 | 1008.4 |
| 20260509211503 | 84 | 111 | 5.2 | 11.3 | 0.00 | 0.01 | 0.00 | 36 | 1008.4 |
| 20260509204528 | 84 | 107 | 3.5 | 7.0 | 0.00 | 0.01 | 0.00 | 35 | 1008.8 |
| 20260509203117 | 85 | 74 | 4.3 | 9.6 | 0.00 | 0.01 | 0.00 | 36 | 1009.0 |
| 20260509201528 | 86 | 142 | 3.5 | 7.0 | 0.00 | 0.01 | 0.00 | 35 | 1009.1 |
| 20260509200019 | 85 | 144 | 1.7 | 4.3 | 0.00 | 0.01 | 0.00 | 36 | 1009.2 |
| 20260509194625 | 84 | 146 | 3.5 | 7.8 | 0.00 | 0.01 | 0.00 | 36 | 1009.4 |
| 20260509193045 | 85 | 184 | 0.9 | 7.8 | 0.00 | 0.01 | 0.00 | 36 | 1009.6 |
| 20260509191635 | 84 | 194 | 0.9 | 6.1 | 0.00 | 0.01 | 0.00 | 38 | 1009.7 |
| 20260509190058 | 83 | 199 | 2.6 | 7.8 | 0.00 | 0.01 | 0.00 | 39 | 1009.9 |
| 20260509184523 | 81 | 87 | 5.2 | 7.8 | 0.00 | 0.01 | 0.00 | 41 | 1010.0 |
| 20260509183120 | 83 | 86 | 4.3 | 8.7 | 0.00 | 0.01 | 0.00 | 38 | 1010.1 |
| 20260509181529 | 82 | 131 | 3.5 | 6.1 | 0.00 | 0.01 | 0.00 | 38 | 1010.3 |
| 20260509180128 | 83 | 210 | 3.5 | 9.6 | 0.00 | 0.01 | 0.00 | 38 | 1010.3 |
| 20260509174602 | 83 | 173 | 2.6 | 7.0 | 0.00 | 0.01 | 0.00 | 40 | 1010.7 |
| 20260509173011 | 82 | 194 | 2.6 | 7.0 | 0.00 | 0.01 | 0.00 | 43 | 1011.0 |
| 20260509171606 | 80 | 112 | 0.9 | 6.1 | 0.00 | 0.01 | 0.00 | 48 | 1011.1 |
| 20260509170027 | 79 | 112 | 1.7 | 6.1 | 0.00 | 0.01 | 0.00 | 51 | 1011.2 |
| 20260509164610 | 79 | 135 | 1.7 | 6.1 | 0.00 | 0.01 | 0.00 | 54 | 1011.3 |
| 20260509163030 | 77 | 91 | 3.5 | 7.0 | 0.00 | 0.01 | 0.00 | 61 | 1011.0 |
| 20260509161624 | 77 | 90 | 2.6 | 7.0 | 0.00 | 0.01 | 0.00 | 65 | 1011.2 |
| 20260509160037 | 76 | 147 | 2.6 | 6.1 | 0.00 | 0.01 | 0.00 | 67 | 1011.5 |
| 20260509154633 | 74 | 150 | 0.9 | 5.2 | 0.00 | 0.01 | 0.00 | 70 | 1011.4 |
| 20260509153046 | 74 | 131 | 4.3 | 7.0 | 0.00 | 0.01 | 0.00 | 71 | 1011.5 |
| 20260509151632 | 73 | 218 | 2.6 | 5.2 | 0.00 | 0.01 | 0.00 | 74 | 1011.5 |
| 20260509150056 | 71 | 219 | 1.7 | 5.2 | 0.00 | 0.01 | 0.00 | 76 | 1011.7 |
| 20260509144517 | 70 | 190 | 3.5 | 7.8 | 0.00 | 0.01 | 0.00 | 79 | 1011.7 |
| 20260509143107 | 69 | 167 | 3.5 | 6.1 | 0.00 | 0.01 | 0.00 | 79 | 1011.4 |
| 20260509141508 | 68 | 69 | 1.7 | 4.3 | 0.00 | 0.01 | 0.00 | 80 | 1011.4 |
| 20260509140119 | 67 | 65 | 0.9 | 3.5 | 0.00 | 0.01 | 0.00 | 82 | 1011.4 |
| 20260509134554 | 64 | 65 | 0.0 | 0.0 | 0.00 | 0.01 | 0.00 | 85 | 1011.3 |
| 20260509133016 | 62 | 65 | 0.0 | 4.3 | 0.00 | 0.01 | 0.00 | 87 | 1011.2 |
| 20260509131620 | 60 | 65 | 0.0 | 1.7 | 0.00 | 0.01 | 0.00 | 89 | 1011.0 |
| 20260509130047 | 58 | 65 | 0.0 | 0.0 | 0.00 | 0.01 | 0.00 | 90 | 1010.9 |
| 20260509124502 | 58 | 65 | 0.9 | 3.5 | 0.00 | 0.01 | 0.00 | 90 | 1010.6 |
| 20260509123105 | 57 | 65 | 2.6 | 4.3 | 0.00 | 0.01 | 0.00 | 90 | 1010.5 |
| 20260509121520 | 57 | 65 | 0.0 | 0.0 | 0.00 | 0.01 | 0.00 | 89 | 1010.1 |
| 20260509120118 | 57 | 65 | 0.0 | 0.0 | 0.00 | 0.01 | 0.00 | 89 | 1009.9 |
| 20260509114533 | 57 | 65 | 0.0 | 0.0 | 0.00 | 0.01 | 0.00 | 89 | 1009.8 |
| 20260509113129 | 57 | 65 | 0.0 | 0.0 | 0.00 | 0.01 | 0.00 | 89 | 1009.5 |
| 20260509111542 | 57 | 65 | 0.0 | 0.0 | 0.00 | 0.01 | 0.00 | 89 | 1009.6 |
| 20260509110133 | 57 | 65 | 0.0 | 0.0 | 0.00 | 0.01 | 0.00 | 89 | 1009.5 |
| 20260509104558 | 58 | 65 | 0.0 | 1.7 | 0.00 | 0.01 | 0.00 | 88 | 1009.8 |
| 20260509103021 | 58 | 65 | 1.7 | 4.3 | 0.00 | 0.01 | 0.00 | 87 | 1009.8 |
| 20260509101621 | 58 | 65 | 1.7 | 4.3 | 0.00 | 0.01 | 0.00 | 86 | 1009.8 |
| 20260509100040 | 59 | 65 | 1.7 | 4.3 | 0.00 | 0.01 | 0.00 | 85 | 1010.0 |
| 20260509094631 | 60 | 65 | 1.7 | 5.2 | 0.00 | 0.01 | 0.00 | 84 | 1010.0 |
| 20260509093050 | 62 | 66 | 0.9 | 3.5 | 0.00 | 0.01 | 0.00 | 85 | 1009.8 |
| 20260509091516 | 62 | 65 | 0.0 | 4.3 | 0.00 | 0.01 | 0.00 | 85 | 1009.7 |
| 20260509090120 | 62 | 65 | 1.7 | 4.3 | 0.00 | 0.01 | 0.00 | 85 | 1009.6 |
| 20260509084535 | 62 | 63 | 1.7 | 4.3 | 0.00 | 0.01 | 0.00 | 85 | 1009.8 |
| 20260509083121 | 62 | 62 | 1.7 | 5.2 | 0.00 | 0.01 | 0.00 | 84 | 1010.0 |
| 20260509081540 | 61 | 59 | 0.9 | 3.5 | 0.00 | 0.01 | 0.00 | 84 | 1010.0 |
| 20260509080013 | 62 | 59 | 0.0 | 0.0 | 0.00 | 0.01 | 0.00 | 83 | 1010.1 |
| 20260509074609 | 62 | 59 | 0.0 | 1.7 | 0.00 | 0.01 | 0.00 | 83 | 1010.1 |
| 20260509073024 | 62 | 59 | 0.0 | 0.0 | 0.00 | 0.01 | 0.00 | 82 | 1010.1 |
| 20260509071518 | 62 | 59 | 0.0 | 1.7 | 0.00 | 0.01 | 0.00 | 82 | 1010.4 |
| 20260509070116 | 62 | 59 | 0.0 | 0.0 | 0.00 | 0.01 | 0.00 | 82 | 1010.4 |
| 20260509064536 | 63 | 59 | 0.0 | 0.0 | 0.00 | 0.01 | 0.00 | 82 | 1010.8 |
| 20260509063005 | 63 | 59 | 0.0 | 0.9 | 0.00 | 0.01 | 0.00 | 82 | 1010.8 |
| 20260509061601 | 63 | 59 | 0.0 | 0.0 | 0.00 | 0.01 | 0.00 | 82 | 1010.9 |
| 20260509060023 | 63 | 59 | 0.0 | 3.5 | 0.00 | 0.01 | 0.00 | 83 | 1010.9 |
| 20260509054620 | 63 | 59 | 1.7 | 4.3 | 0.00 | 0.01 | 0.00 | 83 | 1011.1 |
| 20260509053107 | 62 | 59 | 3.5 | 7.0 | 0.00 | 0.01 | 0.00 | 84 | 1010.8 |
| 20260509051633 | 63 | 44 | 4.3 | 7.8 | 0.00 | 0.01 | 0.00 | 83 | 1010.6 |
| 20260509050049 | 64 | 355 | 2.6 | 6.1 | 0.00 | 0.01 | 0.00 | 81 | 1010.2 |
| 20260509044542 | 64 | 355 | 1.7 | 2.6 | 0.00 | 0.01 | 0.01 | 80 | 1010.3 |
| 20260509043006 | 64 | 355 | 2.6 | 5.2 | 0.00 | 0.01 | 0.01 | 81 | 1010.2 |
| 20260509041605 | 64 | 355 | 0.9 | 4.3 | 0.00 | 0.01 | 0.01 | 81 | 1010.3 |
| 20260509040027 | 65 | 355 | 0.9 | 3.5 | 0.00 | 0.01 | 0.01 | 81 | 1010.4 |
| 20260509034621 | 65 | 355 | 0.0 | 1.7 | 0.00 | 0.01 | 0.01 | 80 | 1010.2 |
| 20260509033032 | 65 | 355 | 0.9 | 4.3 | 0.00 | 0.01 | 0.01 | 80 | 1010.1 |
| 20260509031625 | 65 | 355 | 3.5 | 5.2 | 0.00 | 0.01 | 0.01 | 80 | 1009.8 |
| 20260509030052 | 66 | 355 | 0.0 | 0.0 | 0.00 | 0.01 | 0.01 | 79 | 1009.9 |
| 20260509024522 | 66 | 355 | 1.7 | 7.0 | 0.00 | 0.01 | 0.01 | 79 | 1009.6 |
| 20260509023007 | 66 | 355 | 6.1 | 10.4 | 0.00 | 0.01 | 0.01 | 78 | 1009.3 |
| 20260509021606 | 66 | 211 | 4.3 | 9.6 | 0.00 | 0.01 | 0.01 | 77 | 1008.6 |
| 20260509020027 | 67 | 202 | 2.6 | 7.0 | 0.00 | 0.01 | 0.01 | 77 | 1008.2 |
| 20260509014620 | 67 | 202 | 4.3 | 7.0 | 0.00 | 0.01 | 0.01 | 77 | 1008.1 |
| 20260509013052 | 67 | 199 | 5.2 | 11.3 | 0.00 | 0.01 | 0.01 | 77 | 1007.5 |